User: anonymous   Login
Location: Consuma
(43.7833°N, 11.5833°E)
Time: 06:24:20
(UTC+00:00)
Language:

Cosmos 1727 Rocket - Orbit

View from above orbital plane
View from above orbital plane
View from above satellite
View from above satellite

Ground track
Ground track

The orbit data is extracted from the following two-line orbital elements,

1 16511U 86008B   20156.72591701 -.00000053  00000-0 -70445-4 0  9996
2 16511  82.9423 136.3620 0025123 133.2744  39.9123 13.75802547725263
Epoch (UTC): 04 June 2020 17:25:19
Eccentricity: 0.0025123
inclination: 82.9423°
perigee height: 960 km
apogee height: 997 km
right ascension of ascending node: 136.3620°
argument of perigee: 133.2744°
revolutions per day: 13.75802547
mean anomaly at epoch: 39.9123°
orbit number at epoch: 72526

The dashed part of the orbit path shows where the satellite is in the earth's shadow,  

DLR